Location: Newark
(7.0858°N, 171.3717°E)
Time: 06:21:53
(UTC+00:00)

Courier 1B - Pass Details

Date: 26 November 2020
Orbit: 962 x 1209 km, 28.3° (Epoch: 19 January)

Event Time Altitude Azimuth Distance (km) Brightness Sun altitude
Rises 12:38:03 0° 300° (WNW) 3,820 - -75.5°
Reaches altitude 10° 12:42:27 10° 325° (NW) 2,924 - -75.2°
Maximum altitude 12:45:52 14° 354° (N) 2,696 - -74.9°
Drops below altitude 10° 12:49:22 10° 23° (NNE) 3,012 - -74.5°
Sets 12:54:02 0° 47° (NE) 4,025 - -74.0°
